Tulsa, OK

2:27 AM CDT on March 29, 2017 (GMT -0500)
Tulsa International

Weather History for KTUL - April, 2013

Change the Weather History Date:

Monday, April 15, 2013

  Actual Average Record
Temperature  
Mean Temperature 63 °F 60 °F  
Max Temperature 74 °F 72 °F 93 °F (1936)
Min Temperature 52 °F 49 °F 27 °F (1928)
Degree Days  
Heating Degree Days 2 6  
Month to date heating degree days 162 120  
Since 1 July heating degree days 3369 3469  
Cooling Degree Days 0 2  
Month to date cooling degree days 9 19  
Year to date cooling degree days 15 31  
Growing Degree Days 14 (Base 50)    
Moisture  
Dew Point 43 °F    
Average Humidity 53    
Maximum Humidity 72    
Minimum Humidity 34    
Precipitation  
Precipitation T in 0.12 in 2.51 in (1941)
Month to date precipitation 2.01 1.64  
Year to date precipitation 7.83 8.44  
Sea Level Pressure  
Sea Level Pressure 29.73 in    
Wind  
Wind Speed 13 mph (NNE)    
Max Wind Speed 24 mph    
Max Gust Speed 32 mph    
Visibility 10 miles    
Events      
T = Trace of Precipitation, MM = Missing Value Source: NWS Daily Summary

Daily Weather History Graph

Daily Weather History Graph

Search for Another Location

Airport or City:

Trip Planner

Search our weather history database for the weather conditions in past years. The results will help you decide how hot, cold, wet, or windy it might be!

Date:

Astronomy

Apr. 15, 2013 Rise Set
Actual Time 6:49 AM CDT 7:57 PM CDT
Civil Twilight 6:23 AM CDT 8:24 PM CDT
Nautical Twilight 5:51 AM CDT 8:55 PM CDT
Astronomical Twilight 5:19 AM CDT 9:28 PM CDT
Moon 10:21 AM CDT (4/15) 12:05 AM CDT (4/15)
Length of Visible Light 14h 00m
Length of Day
13h 07m
Waxing Crescent, 25% of the Moon is Illuminated
Apr 15
Waxing Crescent
Apr 18
First Quarter
Apr 25
Full
May 2
Last Quarter
May 9
New

Hourly Weather History & Observations

Time (CDT) Temp. Dew Point Humidity Pressure Visibility Wind Dir Wind Speed Gust Speed Precip Events Conditions
12:53 AM 64.9 °F 42.1 °F 43% 29.68 in 10.0 mi North 10.4 mph - N/A   Mostly Cloudy
1:53 AM 64.9 °F 39.0 °F 39% 29.69 in 10.0 mi NNE 11.5 mph 19.6 mph N/A   Overcast
2:53 AM 63.0 °F 34.0 °F 34% 29.70 in 10.0 mi NNE 11.5 mph 21.9 mph N/A   Overcast
3:53 AM 62.1 °F 36.0 °F 38% 29.70 in 10.0 mi North 15.0 mph - 0.00 in   Overcast
4:53 AM 60.1 °F 35.1 °F 39% 29.71 in 10.0 mi North 16.1 mph 23.0 mph N/A   Overcast
5:53 AM 57.9 °F 33.1 °F 39% 29.72 in 10.0 mi NE 21.9 mph 27.6 mph N/A   Overcast
6:53 AM 57.0 °F 34.0 °F 42% 29.73 in 10.0 mi NE 18.4 mph 23.0 mph N/A   Overcast
7:53 AM 55.9 °F 34.0 °F 44% 29.74 in 10.0 mi NE 17.3 mph 24.2 mph N/A   Overcast
8:53 AM 55.9 °F 36.0 °F 47% 29.73 in 10.0 mi NE 11.5 mph - N/A   Overcast
9:29 AM 55.9 °F 37.9 °F 51% 29.74 in 10.0 mi NE 11.5 mph - N/A   Overcast
9:53 AM 57.9 °F 39.0 °F 49% 29.73 in 10.0 mi NE 11.5 mph - N/A   Overcast
10:53 AM 57.9 °F 41.0 °F 53% 29.75 in 10.0 mi NNE 10.4 mph - N/A   Overcast
11:53 AM 59.0 °F 42.1 °F 53% 29.75 in 10.0 mi NNE 10.4 mph - N/A   Overcast
12:53 PM 63.0 °F 46.0 °F 54% 29.74 in 10.0 mi North 12.7 mph - N/A   Mostly Cloudy
1:42 PM 66.0 °F 48.9 °F 54% 29.73 in 10.0 mi North 9.2 mph - N/A   Mostly Cloudy
1:53 PM 66.0 °F 50.0 °F 56% 29.71 in 10.0 mi North 9.2 mph - N/A   Overcast
2:53 PM 71.1 °F 53.1 °F 53% 29.70 in 10.0 mi North 6.9 mph - N/A   Scattered Clouds
3:53 PM 73.0 °F 55.9 °F 55% 29.69 in 10.0 mi NNW 6.9 mph - N/A   Mostly Cloudy
4:53 PM 70.0 °F 55.9 °F 61% 29.69 in 10.0 mi North 10.4 mph - N/A   Overcast
5:53 PM 69.1 °F 55.9 °F 63% 29.69 in 10.0 mi North 11.5 mph - N/A   Overcast
6:53 PM 64.9 °F 52.0 °F 63% 29.71 in 10.0 mi North 17.3 mph - N/A   Overcast
7:53 PM 60.1 °F 48.9 °F 67% 29.74 in 10.0 mi North 17.3 mph 25.3 mph N/A   Overcast
8:53 PM 57.0 °F 48.0 °F 72% 29.79 in 10.0 mi North 15.0 mph 23.0 mph N/A   Mostly Cloudy
9:53 PM 55.9 °F 46.0 °F 69% 29.83 in 10.0 mi NNE 17.3 mph 23.0 mph N/A   Mostly Cloudy
10:53 PM 55.0 °F 43.0 °F 64% 29.86 in 10.0 mi North 16.1 mph 24.2 mph N/A   Overcast
11:53 PM 53.1 °F 42.1 °F 66% 29.85 in 10.0 mi North 15.0 mph 23.0 mph N/A   Partly Cloudy